DW7465 Weather Reports


Display with metric or nautical units.
time (UTC)temp
F
wind
direction
speed
MPH
gust
MPH
rain 1hr
in
rain 24hr
in
rain mn
in
humidity
%
barometer
mb
20260503203049 79 0 0.0 3.0 0.00 0.00 0.00 43 1012.3
20260503201545 78 96 0.0 5.0 0.00 0.00 0.00 47 1012.5
20260503200044 78 338 1.0 4.0 0.00 0.00 0.00 42 1012.7
20260503194549 78 0 0.0 4.0 0.00 0.00 0.00 44 1012.9
20260503193106 78 0 0.0 6.0 0.00 0.00 0.00 50 1013.1
20260503191550 77 90 0.0 3.0 0.00 0.00 0.00 48 1013.2
20260503190059 76 0 0.0 4.0 0.00 0.00 0.00 50 1013.5
20260503184545 74 0 0.0 3.0 0.00 0.00 0.00 52 1013.5
20260503183058 73 0 1.0 7.0 0.00 0.00 0.00 51 1013.7
20260503181548 72 0 1.0 4.0 0.00 0.00 0.00 54 1013.8
20260503180055 72 0 1.0 5.0 0.00 0.00 0.00 52 1013.7
20260503174546 72 0 1.0 7.0 0.00 0.00 0.00 57 1013.8
20260503173108 71 0 0.0 5.0 0.00 0.00 0.00 56 1014.0
20260503171552 71 307 0.0 4.0 0.00 0.00 0.00 56 1014.1
20260503081548 51 0 0.0 0.0 0.00 0.00 0.00 86 1014.5
20260503071550 53 0 0.0 0.0 0.00 0.00 0.00 85 1014.3
20260503054546 56 0 0.0 0.0 0.00 0.00 0.00 75 1014.4
20260503053047 57 0 0.0 0.0 0.00 0.00 0.00 73 1014.2
20260503051550 58 0 0.0 0.0 0.00 0.00 0.00 71 1014.1
20260503050046 58 0 0.0 0.0 0.00 0.00 0.00 70 1014.0
20260503044548 59 0 0.0 0.0 0.00 0.00 0.00 69 1014.0
20260503043048 60 0 0.0 0.0 0.00 0.00 0.00 67 1014.0
20260503041545 61 0 0.0 0.0 0.00 0.00 0.00 64 1013.7
20260503040050 61 0 0.0 0.0 0.00 0.00 0.00 63 1013.5
20260503034549 62 0 0.0 0.0 0.00 0.00 0.00 61 1013.4
20260503033046 64 0 0.0 0.0 0.00 0.00 0.00 59 1013.2
20260503031545 65 0 0.0 3.0 0.00 0.00 0.00 57 1013.3
20260503030046 66 0 0.0 2.0 0.00 0.00 0.00 56 1013.1
20260503024545 67 0 0.0 7.0 0.00 0.00 0.00 55 1013.0
20260503023046 68 0 0.0 3.0 0.00 0.00 0.00 57 1012.9
20260503021551 69 0 0.0 3.0 0.00 0.00 0.00 55 1013.0
20260503020054 70 0 0.0 10.0 0.00 0.00 0.00 55 1012.9
20260503014617 70 0 1.0 11.0 0.00 0.00 0.00 55 1013.0
20260503013046 70 0 1.0 7.0 0.00 0.00 0.00 55 1013.1
20260503011553 71 323 2.0 8.0 0.00 0.00 0.00 55 1013.2
20260503010052 71 0 1.0 9.0 0.00 0.00 0.00 55 1013.2
20260503004556 72 0 0.0 5.0 0.00 0.00 0.00 55 1013.2
20260503003045 72 0 1.0 10.0 0.00 0.00 0.00 55 1013.2
20260503001559 73 0 4.0 10.0 0.00 0.00 0.00 55 1013.2
20260503000100 75 0 0.0 3.0 0.00 0.00 0.00 53 1013.2
20260502234546 77 0 0.0 6.0 0.00 0.00 0.00 52 1013.4
20260502233047 78 0 1.0 7.0 0.00 0.00 0.00 51 1013.6
20260502231544 77 0 0.0 9.0 0.00 0.00 0.00 52 1013.7
20260502230044 76 0 1.0 11.0 0.00 0.00 0.00 54 1014.1
20260502224600 75 0 2.0 9.0 0.00 0.00 0.00 56 1014.2
20260502223044 75 0 1.0 7.0 0.00 0.00 0.00 54 1014.5
20260502221544 75 320 2.0 11.0 0.00 0.00 0.00 55 1014.7
20260502220048 74 296 2.0 10.0 0.00 0.00 0.00 53 1014.9
20260502214546 74 339 0.0 10.0 0.00 0.00 0.00 54 1015.0
20260502213048 74 0 1.0 9.0 0.00 0.00 0.00 51 1015.2
20260502211546 73 0 1.0 7.0 0.00 0.00 0.00 58 1015.4
20260502210046 71 0 0.0 3.0 0.00 0.00 0.00 61 1015.4
20260502204545 69 306 0.0 10.0 0.00 0.00 0.00 67 1015.5